Camp Pendleton, CA

3:59 PM PDT on May 29, 2017 (GMT -0700)
Camp Pendleton Marine Corps Air Station

Weather History for KNFG - March, 2013

Change the Weather History Date:

Monday, March 25, 2013

  Actual Average Record
Temperature  
Mean Temperature 57 °F -  
Max Temperature 73 °F 65 °F 80 °F (1997)
Min Temperature 42 °F 45 °F 35 °F (2009)
Degree Days  
Heating Degree Days 8    
Growing Degree Days 7 (Base 50)    
Moisture  
Dew Point 44 °F    
Average Humidity 78    
Maximum Humidity 94    
Minimum Humidity 46    
Precipitation  
Precipitation 0.00 in - - ()
Sea Level Pressure  
Sea Level Pressure 29.95 in    
Wind  
Wind Speed 1 mph (SSW)    
Max Wind Speed 12 mph    
Max Gust Speed -    
Visibility 5 miles    
Events      
Averages and records for this station are not official NWS values.
T = Trace of Precipitation, MM = Missing Value Source: NWS Daily Summary

Daily Weather History Graph

Daily Weather History Graph

Search for Another Location

Airport or City:

Trip Planner

Search our weather history database for the weather conditions in past years. The results will help you decide how hot, cold, wet, or windy it might be!

Date:

Astronomy

Mar. 25, 2013 Rise Set
Actual Time 6:45 AM PDT 7:04 PM PDT
Civil Twilight 6:21 AM PDT 7:29 PM PDT
Nautical Twilight 5:52 AM PDT 7:58 PM PDT
Astronomical Twilight 5:22 AM PDT 8:28 PM PDT
Moon 5:43 PM PDT (3/25) 5:27 AM PDT (3/25)
Length of Visible Light 13h 08m
Length of Day
12h 18m
Waxing Gibbous, 97% of the Moon is Illuminated
Mar 25
Waxing Gibbous
Mar 27
Full
Apr 2
Last Quarter
Apr 10
New
Apr 18
First Quarter

Hourly Weather History & Observations

Time (PDT) Temp. Dew Point Humidity Pressure Visibility Wind Dir Wind Speed Gust Speed Precip Events Conditions
12:54 AM 46.9 °F 43.0 °F 86% 29.94 in 5.0 mi Calm Calm - N/A   Clear
1:54 AM 46.9 °F 41.0 °F 80% 29.94 in 7.0 mi Calm Calm - N/A   Clear
2:32 AM 46.4 °F 42.8 °F 87% 29.94 in 7.0 mi Calm Calm - N/A   Scattered Clouds
2:54 AM 46.9 °F 42.1 °F 83% 29.94 in 6.0 mi Calm Calm - N/A   Haze
3:08 AM 44.6 °F 39.2 °F 81% 29.94 in 2.5 mi Calm Calm - N/A   Haze
3:15 AM 44.6 °F 39.2 °F 81% 29.94 in 4.0 mi Calm Calm - N/A   Haze
3:17 AM 44.6 °F 39.2 °F 81% 29.94 in 1.5 mi Calm Calm - N/A   Haze
3:26 AM 46.4 °F 39.2 °F 76% 29.94 in 2.5 mi Calm Calm - N/A   Haze
3:33 AM 44.6 °F 39.2 °F 81% 29.94 in 7.0 mi Calm Calm - N/A   Partly Cloudy
3:49 AM 46.4 °F 39.2 °F 76% 29.93 in 2.0 mi Calm Calm - N/A   Haze
3:54 AM 46.0 °F 41.0 °F 83% 29.94 in 5.0 mi Calm Calm - N/A   Haze
4:13 AM 44.6 °F 39.2 °F 81% 29.94 in 1.5 mi Calm Calm - N/A   Haze
4:17 AM 44.6 °F 39.2 °F 81% 29.94 in 1.2 mi Calm Calm - N/A   Haze
4:23 AM 44.6 °F 39.2 °F 81% 29.94 in 2.0 mi Calm Calm - N/A   Haze
4:27 AM 44.6 °F 39.2 °F 81% 29.94 in 4.0 mi Calm Calm - N/A   Haze
4:54 AM 44.1 °F 39.0 °F 82% 29.95 in 6.0 mi Calm Calm - N/A   Haze
5:26 AM 42.8 °F 39.2 °F 87% 29.95 in 3.0 mi Calm Calm - N/A   Scattered Clouds
5:28 AM 42.8 °F 39.2 °F 87% 29.95 in 1.2 mi Calm Calm - N/A   Scattered Clouds
5:31 AM 42.8 °F 39.2 °F 87% 29.95 in 0.8 mi Calm Calm - N/A   Mist
5:44 AM 42.8 °F 37.4 °F 81% 29.95 in 1.5 mi Calm Calm - N/A   Mostly Cloudy
5:46 AM 42.8 °F 37.4 °F 81% 29.96 in 3.0 mi Calm Calm - N/A   Mostly Cloudy
6:51 AM 44.6 °F 39.2 °F 81% 29.97 in 1.8 mi Calm Calm - N/A   Haze
6:54 AM 44.1 °F 39.0 °F 82% 29.97 in 10.0 mi Calm Calm - N/A   Scattered Clouds
7:54 AM 46.0 °F 42.1 °F 86% 29.99 in 7.0 mi Calm Calm - N/A   Mostly Cloudy
8:08 AM 48.2 °F 42.8 °F 82% 29.99 in 2.0 mi Calm Calm - N/A   Mostly Cloudy
8:14 AM 48.2 °F 44.6 °F 87% 29.99 in 1.0 mi Calm Calm - N/A   Mist
8:20 AM 48.2 °F 44.6 °F 87% 29.99 in 0.8 mi Calm Calm - N/A   Mist
8:46 AM 51.8 °F 46.4 °F 82% 29.98 in 0.8 mi Calm Calm - N/A   Overcast
8:54 AM 52.0 °F 48.0 °F 86% 29.99 in 1.0 mi Calm Calm - N/A   Overcast
9:17 AM 53.6 °F 50.0 °F 88% 29.98 in 1.5 mi Calm Calm - N/A   Mostly Cloudy
9:24 AM 53.6 °F 51.8 °F 94% 29.98 in 7.0 mi Calm Calm - N/A   Scattered Clouds
9:54 AM 55.9 °F 51.1 °F 84% 29.97 in 8.0 mi South 3.5 mph - N/A   Scattered Clouds
10:54 AM 66.0 °F 50.0 °F 56% 29.96 in 10.0 mi South 3.5 mph - N/A   Scattered Clouds
11:54 AM 71.1 °F 51.1 °F 49% 29.94 in 10.0 mi South 5.8 mph - N/A   Scattered Clouds
12:54 PM 71.1 °F 51.1 °F 49% 29.94 in 10.0 mi SSW 11.5 mph - N/A   Mostly Cloudy
1:54 PM 72.0 °F 50.0 °F 46% 29.92 in 10.0 mi SSW 8.1 mph - N/A   Mostly Cloudy
2:54 PM 70.0 °F 50.0 °F 49% 29.91 in 10.0 mi SSW 11.5 mph - N/A   Mostly Cloudy
3:54 PM 69.1 °F 51.1 °F 53% 29.90 in 10.0 mi SSW 9.2 mph - N/A   Mostly Cloudy
4:54 PM 66.0 °F 53.1 °F 63% 29.90 in 10.0 mi SSW 8.1 mph - N/A   Mostly Cloudy
5:54 PM 64.0 °F 53.1 °F 67% 29.90 in 10.0 mi South 6.9 mph - N/A   Mostly Cloudy
6:54 PM 61.0 °F 53.1 °F 75% 29.91 in 8.0 mi SSW 4.6 mph - N/A   Mostly Cloudy
7:54 PM 59.0 °F 53.1 °F 81% 29.92 in 8.0 mi Calm Calm - N/A   Scattered Clouds
8:54 PM 55.9 °F 50.0 °F 80% 29.94 in 7.0 mi Calm Calm - N/A   Mostly Cloudy
9:54 PM 53.1 °F 48.0 °F 83% 29.96 in 7.0 mi Calm Calm - N/A   Mostly Cloudy
10:54 PM 48.0 °F 43.0 °F 83% 29.97 in 6.0 mi Calm Calm - N/A   Haze
11:54 PM 53.1 °F 48.0 °F 83% 29.97 in 5.0 mi North 3.5 mph - N/A   Overcast